Flag for Moldova Weather past 2 weeks in Cahul, Moldova

Now
77 °F

Partly sunny.


Feels Like: 79 °F
Forecast: 63 / 84 °F
Wind: 3 mph from Northwest

Location: Galati

Current Time: Jul 31, 2015 at 9:11:56 PM

Latest Report: Jul 31, 2015 at 8:00 PM


Visibility: 13 mi

Pressure: 29.86 "Hg

Humidity: 71%

Dew point: 67 °F

Location of CahulLocation

Historic Weather in Cahul — Graph

°F

Cahul temperature yesterday

Maximum temperature yesterday: 97 °F (at 4:00 PM)
Minimum temperature yesterday: 73 °F (at 7:00 AM)
Average temperature yesterday: 85 °F

Past Weeks' High & Low Weather Summary

 TemperatureHumidityPressure
High98 °F (Jul 26, 5:00 PM)92% (Jul 31, 5:00 AM)30.15 "Hg (Jul 31, 5:00 AM)
Low66 °F (Jul 17, 6:00 AM)21% (Jul 26, 6:00 PM)29.65 "Hg (Jul 26, 7:00 PM)
Average81 °F51%29.89 "Hg
* Reported Jul 16 8:00 PM — Jul 31 8:00 PM, Cahul, Weather by CustomWeather, © 2015

Note: Actual official high and low records may vary slightly from our data, if they occured in-between our weather recording intervals... More about our weather records

Advertising

Cahul weather history for previous 24 hours

 ConditionsComfort  
Time TempWeatherWind HumidityBarometerVisibility
8:00 PM
Fri, Jul 31
77 °FPartly sunny.3 mph71%29.86 "Hg12 mi
7:00 PM78 °FScattered clouds.3 mph70%29.85 "Hg12 mi
6:00 PM79 °FPartly sunny.3 mph68%29.85 "Hg12 mi
5:00 PM82 °FPartly sunny.2 mph63%29.86 "Hg12 mi
4:00 PM84 °FScattered clouds.3 mph61%29.86 "Hg12 mi
3:00 PM81 °FScattered clouds.3 mph67%29.87 "Hg12 mi
2:00 PM81 °FPartly sunny.3 mph68%29.89 "Hg12 mi
1:00 PM80 °FPartly sunny.3 mph67%29.89 "Hg12 mi
12:00 PM76 °FOvercast.3 mph76%29.90 "Hg12 mi
11:00 AM75 °FPartly sunny.3 mph78%29.90 "Hg12 mi
10:00 AM74 °FScattered clouds.3 mph80%29.91 "Hg12 mi
9:00 AM72 °FPartly sunny.3 mph84%29.90 "Hg6 mi
8:00 AM69 °FPartly sunny.5 mph91%29.88 "Hg6 mi
6:00 AM69 °FOvercast.3 mph91%29.89 "Hg6 mi
5:00 AM69 °FThunderstorms. Passing clouds.2 mph92%29.88 "Hg12 mi
4:00 AM70 °FThunderstorms. Overcast.5 mph88%29.84 "Hg12 mi
3:00 AM71 °FOvercast.3 mph84%29.88 "Hg12 mi
2:00 AM71 °FPassing clouds.5 mph82%29.86 "Hg12 mi
11:00 PM
Thu, Jul 30
81 °FPassing clouds.1 mph61%29.83 "Hg12 mi
10:00 PM83 °FPassing clouds.1 mph52%29.80 "Hg12 mi
9:00 PM85 °FPassing clouds.3 mph48%29.78 "Hg12 mi
Weather by CustomWeather, © 2015

See weather overviewHow to use our weather pages